cover

Cicada - The Things You Say (Original Mix)

Get it on iTunes StoreListen on Apple Music

Trackname / Key / BPM / Publish dateArtists, Remixers / Label
127 bpm, 7A / D minor, 2006-10-16, Electronica,  2  14

Tracks in release Cicada

#Trackname / Key / BPM / Publish dateArtists, Remixers / Label
1 121 bpm, 8A / A minor, 2006-10-16, Electronica,  1  14
2 123 bpm, 5A / C minor, 2006-10-16, Electronica,  0  14
3 127 bpm, 7A / D minor, 2006-10-16, Electronica,  2  14
4 125 bpm, 11B / A major, 2006-10-16, Electronica,  0  14
5 100 bpm, 1B / B major, 2006-10-16, Electronica,  0  14
6 121 bpm, 1B / B major, 2006-10-16, House,  0  14
7 109 bpm, 6B / Bb major, 2006-10-16, Electronica,  0  14
8 123 bpm, 6B / Bb major, 2006-10-16, Electronica,  0  14
9 123 bpm, 4A / F minor, 2006-10-16, Electronica,  0  14
10 105 bpm, 10A / B minor, 2006-10-16, Electronica,  0  14
11 125 bpm, 1B / B major, 2006-10-16, Electronica,  0  14
12 100 bpm, 4A / F minor, 2006-10-16, Electronica,  0  14
13 102 bpm, 5A / C minor, 2006-10-16, Electronica,  1  14
14 127 bpm, 10B / D major, 2006-10-16, Electronica,  0  14

Recommendations

#Trackname / Key / BPM / Publish dateArtists, Remixers / Label
1 128 bpm, 1B / B major, 2006-07-17, Electro House,  26  1   3
2 126 bpm, 10B / D major, 2006-07-17, Electro House,  14  1   1
3 128 bpm, 9B / G major, 2006-07-31, Electro House,  13  1   3
4 128 bpm, 6A / G minor, 2006-07-10, Electro House,  7  1   2
5 126 bpm, 8A / A minor, 2006-08-17 (2006-08-31), Electro House,  7  1   3
6 125 bpm, 6A / G minor, 2006-07-05, Electro House,  2  1   2
7 130 bpm, 7B / F major, 2006-07-18, Electro House,  2  1   6
8 127 bpm, 11B / A major, 2006-07-26, Electro House,  2  1   2
9 130 bpm, 8A / A minor, 2006-05-23, Progressive House,  2  1   4
10 110 bpm, 9A / E minor, 2006-06-05, Electronica,  1  1   4
11 130 bpm, 12A / Db minor, 2006-09-05, House,  1  1   5
12 128 bpm, 7A / D minor, 2006-10-10 (2006-07-24), Electro House,  1  1   5

Charts

ArtistTitleGenresPublish date
Jonathan Ulysses Space Terrace Anthems 2006Electronica, House, Progressive House, Electro House 2006-09-06
Beatport Play Paul's chartElectronica, Electro House 2006-08-02
×

Sign in

Sign in to access your personalized pages, follow artists and labels you love, and create playlists fromyour favorite tracks.

Please wait...